Regional Weather Roundup
Issued by NWS

Home | Current Version | Previous Version | Graphics & Text | Print | Product List | Glossary On
Versions: 1 2 3 4 5 6 7 8 9 10 11 12 13 14 15 16 17 18 19 20 21 22 23 24 25 26 27 28 29 30 31 32 33 34 35 36 37 38 39 40 41 42 43 44 45 46 47 48 49 50
000
ASUS43 KLOT 281308
RWRIL

ILLINOIS REGIONAL WEATHER ROUNDUP
NATIONAL WEATHER SERVICE CHICAGO/ROMEOVILLE IL
800 AM CDT FRI AUG 28 2015

NOTE: "FAIR" INDICATES FEW OR NO CLOUDS BELOW 12,000 FEET WITH NO
SIGNIFICANT WEATHER AND/OR OBSTRUCTIONS TO VISIBILITY.

* THESE STATIONS ARE NOT UNDER NWS QUALITY CONTROL. THEY ALSO MAY NOT
  REPORT WEATHER SUCH AS PRECIPITATION OR FOG.

ILZ001-002-007-009-015-016-024-281400-
NORTHWEST ILLINOIS

CITY           SKY/WX    TMP DP  RH WIND       PRES   REMARKS
MOLINE         CLOUDY    62  58  86 E6        30.10F
STERLING*      CLOUDY    61  59  94 CALM      30.11F
SAVANNA*       CLOUDY    62  58  90 SE3       30.11F FOG
$$

ILZ003-004-008-010-011-017-018-281400-
NORTH CENTRAL ILLINOIS

CITY           SKY/WX    TMP DP  RH WIND       PRES   REMARKS
ROCKFORD       CLOUDY    62  57  83 SE3       30.15R
FREEPORT*      CLOUDY    59  57  94 SE3       30.14F FOG
ROCHELLE*      CLOUDY    60  58  94 CALM      30.15R FOG
DE KALB*       CLOUDY    60  58  91 CALM      30.15S FOG
PERU*          CLOUDY    61  57  86 CALM      30.15R
$$

ILZ005-006-012>014-019>023-281400-
NORTHEAST ILLINOIS

CITY           SKY/WX    TMP DP  RH WIND       PRES   REMARKS
CHICAGO-OHARE  CLOUDY    64  58  80 S5        30.14R
CHICAGO-MIDWAY CLOUDY    65  56  72 S3        30.14R
AURORA         CLOUDY    61  58  90 CALM      30.15R FOG
LANSING*       PTSUNNY   61  58  89 CALM      30.16R
JOLIET*        CLOUDY    61  59  92 CALM      30.15R
WAUKEGAN       MOSUNNY   62  58  86 CALM      30.14R FOG
DUPAGE AIRPORT CLOUDY    62  57  83 CALM      30.14R
KANKAKEE*      CLOUDY    60  58  93 CALM      30.16R
WHEELING       PTSUNNY   62  56  80 CALM      30.15R
MORRIS*        LGT RAIN  59  58  95 CALM      30.14R
ROMEOVILLE*    CLOUDY    60  57  90 SE5       30.14S
NORTHERLY ISL    N/A     64  57  78 SE3         N/A
$$

LMZ740>746-281400-
SOUTHERN LAKE MICHIGAN

STATION/POSITION SKY/WX   TEMP    WIND        PRES    VSBY  WAVE
                          AIR SEA DIR/SP/G                  HT/PER
                          (F)     (DEG/KT/KT) (MB)    (MI)  (FT/S)
SOUTHERN BUOY              67 67  180/ 10/ 12 1020.7R         2/ 4
WILMETTE HARBOR            58 55  330/  4/  6   N/A           1/ 3
HARRISON CRIB              62     180/  7/  7   N/A
BURNHAM HARBOR             64     150/  3/  5   N/A
CALUMET HARBOR             61     180/  4/  5   N/A
BURNS HARBOR               62     170/  6/ 11 1021.0R
MICHIGAN CITY              60     130/ 11/ 13   N/A
MICHIGAN CITY 6N           63 70  180/ 12/ 14   N/A           1/ 2
ST. JOSEPH                 63 71  200/ 10/ 12   N/A           1/ 2
$$

ILZ025>027-034>036-040-047-049-050-058-095>099-281400-
WEST-CENTRAL ILLINOIS

CITY           SKY/WX    TMP DP  RH WIND       PRES   REMARKS
QUINCY         CLOUDY    63  59  87 SE7       30.09R
GALESBURG*     CLOUDY    60  58  94 SE3       30.11F
MACOMB*        CLOUDY    57  57  99 E3        30.13S FOG
JACKSONVILLE*  PTSUNNY   66  61  83 SE6       30.12R
PITTSFIELD*    PTSUNNY   62  60  93 CALM      30.11S
$$

ILZ028>032-037-038-041>044-048-051>054-059>061-281400-
CENTRAL ILLINOIS

CITY           SKY/WX    TMP DP  RH WIND       PRES   REMARKS
PONTIAC        CLOUDY    62  61  96 SE3       30.14F
BLOOMINGTON    CLOUDY    64  61  90 S7        30.15R
DECATUR        CLOUDY    63  59  87 CALM      30.14R
PEORIA         CLOUDY    64  59  83 CALM      30.13R
LACON*         CLOUDY    60  58  90 SE3       30.12S
LINCOLN*       CLOUDY    63  59  88 CALM      30.14S
SPRINGFIELD    PTSUNNY   65  61  87 SE6       30.12S
TAYLORVILLE    PTSUNNY   61  59  94 SE6       30.13S
$$

ILZ033-039-045-046-055>057-062-063-281400-
EAST-CENTRAL ILLINOIS

CITY           SKY/WX    TMP DP  RH WIND       PRES   REMARKS
CHAMPAIGN      CLOUDY    62  59  90 S3        30.16R
RANTOUL*       CLOUDY    62  59  91 S3        30.16R
MATTOON        PTSUNNY   64  58  80 S6        30.15R
PARIS*         MOSUNNY   64  62  93 S5        30.17R
$$

ILZ079-100>102-281400-
SOUTHWEST ILLINOIS

CITY           SKY/WX    TMP DP  RH WIND       PRES   REMARKS
ALTON          SUNNY     61  59  94 SE6       30.13R
BELLEVILLE     SUNNY     61  61 100 CALM      30.11F
CAHOKIA*       SUNNY     64  60  87 S3        30.12S
SPARTA*        SUNNY     62  61  96 SE3       30.14S
$$

ILZ064>066-069>071-074>076-080>082-084>086-088>090-092>094-281400-
SOUTH-CENTRAL ILLINOIS

CITY           SKY/WX    TMP DP  RH WIND       PRES   REMARKS
CARBONDALE     MOSUNNY   60  58  92 CALM      30.14R FOG
CAIRO*         SUNNY     62  62 100 CALM      30.13R
EFFINGHAM*     MOSUNNY   63  59  87 E3        30.17S
MARION         MOSUNNY   63  61  94 SE6       30.15R
MT. VERNON     SUNNY     61  55  82 CALM      30.15F
CENTRALIA*     SUNNY     62  60  94 CALM      30.13F
SALEM*         SUNNY     64  60  86 SE5       30.14F
METROPOLIS*    SUNNY     62  62 100 CALM      30.13S
$$

ILZ067-068-072-073-078-083-087-091-281400-
SOUTHEAST ILLINOIS

CITY           SKY/WX    TMP DP  RH WIND       PRES   REMARKS
LAWRENCEVILLE  SUNNY     62  59  90 E5        30.17R
FLORA*         SUNNY     61  59  93 CALM      30.16S
FAIRFIELD*     SUNNY     64  60  88 CALM      30.15R
HARRISBURG*    SUNNY     63  60  93 CALM      30.15R
ROBINSON*      SUNNY     60  58  96 CALM      30.18R
CARMI*         SUNNY     61  60  97 CALM      30.15R
$$

ABBREVIATIONS USED IN REMARKS
   TC - TEMPERATURE IN CELSIUS
  WCI - WIND CHILL INDEX
   HX - HEAT INDEX
  VSB - VISIBILITY
$$




USA.gov is the U.S. government's official web portal to all federal, state and local government web resources and services.